owner,sensor,date,latitude,longitude,vertical_datum,wind_speed,wind_to_direction,wind_speed_of_gust,qcFlag 
DISL,ioos:station:DISL:MBLA:1,2014-11-01T00:00:00Z,30.4367,-88.0117,14.2,11.8,322.7,-9999.0,'1111122,1111122,1111122' 
DISL,ioos:station:DISL:MBLA:1,2014-11-01T00:30:00Z,30.4367,-88.0117,14.2,11.49,325.4,-9999.0,'1111122,1111122,1111122' 
DISL,ioos:station:DISL:MBLA:1,2014-11-01T01:00:00Z,30.4367,-88.0117,14.2,13.02,328.5,-9999.0,'1111122,1111122,1111122' 
DISL,ioos:station:DISL:MBLA:1,2014-11-01T01:30:00Z,30.4367,-88.0117,14.2,13.51,335.0,-9999.0,'1111122,1111122,1111122' 
DISL,ioos:station:DISL:MBLA:1,2014-11-01T02:00:00Z,30.4367,-88.0117,14.2,14.39,330.1,-9999.0,'1111122,1111122,1111122' 
DISL,ioos:station:DISL:MBLA:1,2014-11-01T02:30:00Z,30.4367,-88.0117,14.2,15.93,337.9,-9999.0,'1111122,1111122,1111122' 
DISL,ioos:station:DISL:MBLA:1,2014-11-01T03:00:00Z,30.4367,-88.0117,14.2,15.02,342.3,-9999.0,'1111122,1111122,1111122' 
DISL,ioos:station:DISL:MBLA:1,2014-11-01T03:30:00Z,30.4367,-88.0117,14.2,16.9,340.3,-9999.0,'1111122,1111122,1111122' 
DISL,ioos:station:DISL:MBLA:1,2014-11-01T04:00:00Z,30.4367,-88.0117,14.2,17.69,343.8,-9999.0,'1111122,1111122,1111122' 
DISL,ioos:station:DISL:MBLA:1,2014-11-01T04:30:00Z,30.4367,-88.0117,14.2,17.19,343.0,-9999.0,'1111122,1111122,1111122' 
DISL,ioos:station:DISL:MBLA:1,2014-11-01T05:00:00Z,30.4367,-88.0117,14.2,15.3,336.3,-9999.0,'1111122,1111122,1111122' 
DISL,ioos:station:DISL:MBLA:1,2014-11-01T05:30:00Z,30.4367,-88.0117,14.2,15.46,344.0,-9999.0,'1111122,1111122,1111122' 
DISL,ioos:station:DISL:MBLA:1,2014-11-01T06:00:00Z,30.4367,-88.0117,14.2,15.34,341.9,-9999.0,'1111122,1111122,1111122' 
DISL,ioos:station:DISL:MBLA:1,2014-11-01T06:30:00Z,30.4367,-88.0117,14.2,15.98,343.8,-9999.0,'1111122,1111122,1111122' 
DISL,ioos:station:DISL:MBLA:1,2014-11-01T07:00:00Z,30.4367,-88.0117,14.2,16.96,346.9,-9999.0,'1111122,1111122,1111122' 
DISL,ioos:station:DISL:MBLA:1,2014-11-01T07:30:00Z,30.4367,-88.0117,14.2,17.55,3.568,-9999.0,'1111122,1111122,1111122' 
DISL,ioos:station:DISL:MBLA:1,2014-11-01T08:00:00Z,30.4367,-88.0117,14.2,17.19,352.3,-9999.0,'1111122,1111122,1111122' 
DISL,ioos:station:DISL:MBLA:1,2014-11-01T08:30:00Z,30.4367,-88.0117,14.2,16.57,0.733,-9999.0,'1111122,1111122,1111122' 
DISL,ioos:station:DISL:MBLA:1,2014-11-01T09:00:00Z,30.4367,-88.0117,14.2,18.3,356.8,-9999.0,'1111122,1111122,1111122' 
DISL,ioos:station:DISL:MBLA:1,2014-11-01T09:30:00Z,30.4367,-88.0117,14.2,17.52,2.954,-9999.0,'1111122,1111122,1111122' 
DISL,ioos:station:DISL:MBLA:1,2014-11-01T10:00:00Z,30.4367,-88.0117,14.2,15.36,359.1,-9999.0,'1111122,1111122,1111122' 
DISL,ioos:station:DISL:MBLA:1,2014-11-01T10:30:00Z,30.4367,-88.0117,14.2,16.72,0.912,-9999.0,'1111122,1111122,1111122' 
DISL,ioos:station:DISL:MBLA:1,2014-11-01T11:00:00Z,30.4367,-88.0117,14.2,15.33,359.8,-9999.0,'1111122,1111122,1111122' 
DISL,ioos:station:DISL:MBLA:1,2014-11-01T11:30:00Z,30.4367,-88.0117,14.2,15.43,0.818,-9999.0,'1111122,1111122,1111122' 
DISL,ioos:station:DISL:MBLA:1,2014-11-01T12:00:00Z,30.4367,-88.0117,14.2,14.02,354.1,-9999.0,'1111122,1111122,1111122' 
DISL,ioos:station:DISL:MBLA:1,2014-11-01T12:30:00Z,30.4367,-88.0117,14.2,14.57,1.474,-9999.0,'1111122,1111122,1111122' 
DISL,ioos:station:DISL:MBLA:1,2014-11-01T13:00:00Z,30.4367,-88.0117,14.2,12.7,349.3,-9999.0,'1111122,1111122,1111122' 
DISL,ioos:station:DISL:MBLA:1,2014-11-01T13:30:00Z,30.4367,-88.0117,14.2,12.76,347.1,-9999.0,'1111122,1111122,1111122' 
DISL,ioos:station:DISL:MBLA:1,2014-11-01T14:00:00Z,30.4367,-88.0117,14.2,11.92,345.8,-9999.0,'1111122,1111122,1111122' 
DISL,ioos:station:DISL:MBLA:1,2014-11-01T14:30:00Z,30.4367,-88.0117,14.2,11.38,359.0,-9999.0,'1111122,1111122,1111122' 
DISL,ioos:station:DISL:MBLA:1,2014-11-01T15:00:00Z,30.4367,-88.0117,14.2,11.57,2.877,-9999.0,'1111122,1111122,1111122' 
DISL,ioos:station:DISL:MBLA:1,2014-11-01T15:30:00Z,30.4367,-88.0117,14.2,12.1,1.188,-9999.0,'1111122,1111122,1111122' 
DISL,ioos:station:DISL:MBLA:1,2014-11-01T16:00:00Z,30.4367,-88.0117,14.2,10.56,350.6,-9999.0,'1111122,1111122,1111122' 
DISL,ioos:station:DISL:MBLA:1,2014-11-01T16:30:00Z,30.4367,-88.0117,14.2,10.36,350.2,-9999.0,'1111122,1111122,1111122' 
DISL,ioos:station:DISL:MBLA:1,2014-11-01T17:00:00Z,30.4367,-88.0117,14.2,10.29,352.2,-9999.0,'1111122,1111122,1111122' 
DISL,ioos:station:DISL:MBLA:1,2014-11-01T17:30:00Z,30.4367,-88.0117,14.2,9.42,349.1,-9999.0,'1111122,1111122,1111122' 
DISL,ioos:station:DISL:MBLA:1,2014-11-01T18:00:00Z,30.4367,-88.0117,14.2,9.85,349.8,-9999.0,'1111122,1111122,1111122' 
DISL,ioos:station:DISL:MBLA:1,2014-11-01T18:30:00Z,30.4367,-88.0117,14.2,8.75,345.9,-9999.0,'1111122,1111122,1111122' 
DISL,ioos:station:DISL:MBLA:1,2014-11-01T19:00:00Z,30.4367,-88.0117,14.2,10.17,347.9,-9999.0,'1111122,1111122,1111122' 
DISL,ioos:station:DISL:MBLA:1,2014-11-01T19:30:00Z,30.4367,-88.0117,14.2,11.97,359.4,-9999.0,'1111122,1111122,1111122' 
DISL,ioos:station:DISL:MBLA:1,2014-11-01T20:00:00Z,30.4367,-88.0117,14.2,10.09,356.0,-9999.0,'1111122,1111122,1111122' 
DISL,ioos:station:DISL:MBLA:1,2014-11-01T20:30:00Z,30.4367,-88.0117,14.2,8.05,343.2,-9999.0,'1111122,1111122,1111122' 
DISL,ioos:station:DISL:MBLA:1,2014-11-01T21:00:00Z,30.4367,-88.0117,14.2,9.13,348.2,-9999.0,'1111122,1111122,1111122' 
DISL,ioos:station:DISL:MBLA:1,2014-11-01T21:30:00Z,30.4367,-88.0117,14.2,8.94,346.7,-9999.0,'1111122,1111122,1111122' 
DISL,ioos:station:DISL:MBLA:1,2014-11-01T22:00:00Z,30.4367,-88.0117,14.2,10.4,352.9,-9999.0,'1111122,1111122,1111122' 
DISL,ioos:station:DISL:MBLA:1,2014-11-01T22:30:00Z,30.4367,-88.0117,14.2,10.6,3.535,-9999.0,'1111122,1111122,1111122' 
DISL,ioos:station:DISL:MBLA:1,2014-11-01T23:00:00Z,30.4367,-88.0117,14.2,10.12,348.6,-9999.0,'1111122,1111122,1111122' 
DISL,ioos:station:DISL:MBLA:1,2014-11-01T23:30:00Z,30.4367,-88.0117,14.2,9.87,343.4,-9999.0,'1111122,1111122,1111122' 
DISL,ioos:station:DISL:MBLA:1,2014-11-02T00:00:00Z,30.4367,-88.0117,14.2,10.39,358.9,-9999.0,'1111122,1111122,1111122' 
DISL,ioos:station:DISL:MBLA:1,2014-11-02T00:30:00Z,30.4367,-88.0117,14.2,9.23,346.5,-9999.0,'1111122,1111122,1111122' 
DISL,ioos:station:DISL:MBLA:1,2014-11-02T01:00:00Z,30.4367,-88.0117,14.2,8.87,343.9,-9999.0,'1111122,1111122,1111122' 
DISL,ioos:station:DISL:MBLA:1,2014-11-02T01:30:00Z,30.4367,-88.0117,14.2,9.04,344.4,-9999.0,'1111122,1111122,1111122' 
DISL,ioos:station:DISL:MBLA:1,2014-11-02T02:00:00Z,30.4367,-88.0117,14.2,9.64,355.8,-9999.0,'1111122,1111122,1111122' 
DISL,ioos:station:DISL:MBLA:1,2014-11-02T02:30:00Z,30.4367,-88.0117,14.2,11.96,6.014,-9999.0,'1111122,1111122,1111122' 
DISL,ioos:station:DISL:MBLA:1,2014-11-02T03:00:00Z,30.4367,-88.0117,14.2,11.7,6.992,-9999.0,'1111122,1111122,1111122' 
DISL,ioos:station:DISL:MBLA:1,2014-11-02T03:30:00Z,30.4367,-88.0117,14.2,12.35,8.04,-9999.0,'1111122,1111122,1111122' 
DISL,ioos:station:DISL:MBLA:1,2014-11-02T04:00:00Z,30.4367,-88.0117,14.2,12.25,9.05,-9999.0,'1111122,1111122,1111122' 
DISL,ioos:station:DISL:MBLA:1,2014-11-02T04:30:00Z,30.4367,-88.0117,14.2,12.08,8.74,-9999.0,'1111122,1111122,1111122' 
DISL,ioos:station:DISL:MBLA:1,2014-11-02T05:00:00Z,30.4367,-88.0117,14.2,12.45,5.546,-9999.0,'1111122,1111122,1111122' 
DISL,ioos:station:DISL:MBLA:1,2014-11-02T05:30:00Z,30.4367,-88.0117,14.2,12.88,10.65,-9999.0,'1111122,1111122,1111122' 
DISL,ioos:station:DISL:MBLA:1,2014-11-02T06:00:00Z,30.4367,-88.0117,14.2,13.2,11.37,-9999.0,'1111122,1111122,1111122' 
DISL,ioos:station:DISL:MBLA:1,2014-11-02T06:30:00Z,30.4367,-88.0117,14.2,13.25,10.58,-9999.0,'1111122,1111122,1111122' 
DISL,ioos:station:DISL:MBLA:1,2014-11-02T07:00:00Z,30.4367,-88.0117,14.2,12.85,17.63,-9999.0,'1111122,1111122,1111122' 
DISL,ioos:station:DISL:MBLA:1,2014-11-02T07:30:00Z,30.4367,-88.0117,14.2,13.45,17.11,-9999.0,'1111122,1111122,1111122' 
DISL,ioos:station:DISL:MBLA:1,2014-11-02T08:00:00Z,30.4367,-88.0117,14.2,13.19,27.89,-9999.0,'1111122,1111122,1111122' 
DISL,ioos:station:DISL:MBLA:1,2014-11-02T08:30:00Z,30.4367,-88.0117,14.2,11.98,20.54,-9999.0,'1111122,1111122,1111122' 
DISL,ioos:station:DISL:MBLA:1,2014-11-02T09:00:00Z,30.4367,-88.0117,14.2,11.26,25.39,-9999.0,'1111122,1111122,1111122' 
DISL,ioos:station:DISL:MBLA:1,2014-11-02T09:30:00Z,30.4367,-88.0117,14.2,9.55,34.01,-9999.0,'1111122,1111122,1111122' 
DISL,ioos:station:DISL:MBLA:1,2014-11-02T10:00:00Z,30.4367,-88.0117,14.2,9.16,35.3,-9999.0,'1111122,1111122,1111122' 
DISL,ioos:station:DISL:MBLA:1,2014-11-02T10:30:00Z,30.4367,-88.0117,14.2,8.79,40.1,-9999.0,'1111122,1111122,1111122' 
DISL,ioos:station:DISL:MBLA:1,2014-11-02T11:00:00Z,30.4367,-88.0117,14.2,8.35,40.03,-9999.0,'1111122,1111122,1111122' 
DISL,ioos:station:DISL:MBLA:1,2014-11-02T11:30:00Z,30.4367,-88.0117,14.2,9.02,33.48,-9999.0,'1111122,1111122,1111122' 
DISL,ioos:station:DISL:MBLA:1,2014-11-02T12:00:00Z,30.4367,-88.0117,14.2,8.59,32.73,-9999.0,'1111122,1111122,1111122' 
DISL,ioos:station:DISL:MBLA:1,2014-11-02T12:30:00Z,30.4367,-88.0117,14.2,8.51,30.83,-9999.0,'1111122,1111122,1111122' 
DISL,ioos:station:DISL:MBLA:1,2014-11-02T13:00:00Z,30.4367,-88.0117,14.2,9.5,25.2,-9999.0,'1111122,1111122,1111122' 
DISL,ioos:station:DISL:MBLA:1,2014-11-02T13:30:00Z,30.4367,-88.0117,14.2,9.42,25.92,-9999.0,'1111122,1111122,1111122' 
DISL,ioos:station:DISL:MBLA:1,2014-11-02T14:00:00Z,30.4367,-88.0117,14.2,8.81,23.39,-9999.0,'1111122,1111122,1111122' 
DISL,ioos:station:DISL:MBLA:1,2014-11-02T14:30:00Z,30.4367,-88.0117,14.2,8.24,24.57,-9999.0,'1111122,1111122,1111122' 
DISL,ioos:station:DISL:MBLA:1,2014-11-02T15:00:00Z,30.4367,-88.0117,14.2,8.23,25.14,-9999.0,'1111122,1111122,1111122' 
DISL,ioos:station:DISL:MBLA:1,2014-11-02T15:30:00Z,30.4367,-88.0117,14.2,8.03,14.05,-9999.0,'1111122,1111122,1111122' 
DISL,ioos:station:DISL:MBLA:1,2014-11-02T16:00:00Z,30.4367,-88.0117,14.2,8.32,5.245,-9999.0,'1111122,1111122,1111122' 
DISL,ioos:station:DISL:MBLA:1,2014-11-02T16:30:00Z,30.4367,-88.0117,14.2,7.96,4.536,-9999.0,'1111122,1111122,1111122' 
DISL,ioos:station:DISL:MBLA:1,2014-11-02T17:00:00Z,30.4367,-88.0117,14.2,7.8,359.5,-9999.0,'1111122,1111122,1111122' 
DISL,ioos:station:DISL:MBLA:1,2014-11-02T17:30:00Z,30.4367,-88.0117,14.2,7.05,358.7,-9999.0,'1111122,1111122,1111122' 
DISL,ioos:station:DISL:MBLA:1,2014-11-02T18:00:00Z,30.4367,-88.0117,14.2,7.14,2.06,-9999.0,'1111122,1111122,1111122' 
DISL,ioos:station:DISL:MBLA:1,2014-11-02T18:30:00Z,30.4367,-88.0117,14.2,7.41,11.32,-9999.0,'1111122,1111122,1111122' 
DISL,ioos:station:DISL:MBLA:1,2014-11-02T19:00:00Z,30.4367,-88.0117,14.2,7.69,16.15,-9999.0,'1111122,1111122,1111122' 
DISL,ioos:station:DISL:MBLA:1,2014-11-02T19:30:00Z,30.4367,-88.0117,14.2,7.44,7.769,-9999.0,'1111122,1111122,1111122' 
DISL,ioos:station:DISL:MBLA:1,2014-11-02T20:00:00Z,30.4367,-88.0117,14.2,6.94,10.64,-9999.0,'1111122,1111122,1111122' 
DISL,ioos:station:DISL:MBLA:1,2014-11-02T20:30:00Z,30.4367,-88.0117,14.2,6.53,4.856,-9999.0,'1111122,1111122,1111122' 
DISL,ioos:station:DISL:MBLA:1,2014-11-02T21:00:00Z,30.4367,-88.0117,14.2,6.24,0.729,-9999.0,'1111122,1111122,1111122' 
DISL,ioos:station:DISL:MBLA:1,2014-11-02T21:30:00Z,30.4367,-88.0117,14.2,6.51,352.6,-9999.0,'1111122,1111122,1111122' 
DISL,ioos:station:DISL:MBLA:1,2014-11-02T22:00:00Z,30.4367,-88.0117,14.2,6.73,348.6,-9999.0,'1111122,1111122,1111122' 
DISL,ioos:station:DISL:MBLA:1,2014-11-02T22:30:00Z,30.4367,-88.0117,14.2,7.21,349.7,-9999.0,'1111122,1111122,1111122' 
DISL,ioos:station:DISL:MBLA:1,2014-11-02T23:00:00Z,30.4367,-88.0117,14.2,6.91,357.2,-9999.0,'1111122,1111122,1111122' 
DISL,ioos:station:DISL:MBLA:1,2014-11-02T23:30:00Z,30.4367,-88.0117,14.2,6.11,0.838,-9999.0,'1111122,1111122,1111122' 
DISL,ioos:station:DISL:MBLA:1,2014-11-03T00:00:00Z,30.4367,-88.0117,14.2,6.42,359.3,-9999.0,'1111122,1111122,1111122' 
DISL,ioos:station:DISL:MBLA:1,2014-11-03T00:30:00Z,30.4367,-88.0117,14.2,6.47,0.296,-9999.0,'1111122,1111122,1111122' 
DISL,ioos:station:DISL:MBLA:1,2014-11-03T01:00:00Z,30.4367,-88.0117,14.2,5.72,358.7,-9999.0,'1111122,1111122,1111122' 
DISL,ioos:station:DISL:MBLA:1,2014-11-03T01:30:00Z,30.4367,-88.0117,14.2,6.63,2.419,-9999.0,'1111122,1111122,1111122' 
DISL,ioos:station:DISL:MBLA:1,2014-11-03T02:00:00Z,30.4367,-88.0117,14.2,6.35,11.48,-9999.0,'1111122,1111122,1111122' 
DISL,ioos:station:DISL:MBLA:1,2014-11-03T02:30:00Z,30.4367,-88.0117,14.2,6.32,24.0,-9999.0,'1111122,1111122,1111122' 
DISL,ioos:station:DISL:MBLA:1,2014-11-03T03:00:00Z,30.4367,-88.0117,14.2,6.55,33.82,-9999.0,'1111122,1111122,1111122' 
DISL,ioos:station:DISL:MBLA:1,2014-11-03T03:30:00Z,30.4367,-88.0117,14.2,6.37,31.89,-9999.0,'1111122,1111122,1111122' 
DISL,ioos:station:DISL:MBLA:1,2014-11-03T04:00:00Z,30.4367,-88.0117,14.2,6.58,43.65,-9999.0,'1111122,1111122,1111122' 
DISL,ioos:station:DISL:MBLA:1,2014-11-03T04:30:00Z,30.4367,-88.0117,14.2,6.44,51.52,-9999.0,'1111122,1111122,1111122' 
DISL,ioos:station:DISL:MBLA:1,2014-11-03T05:00:00Z,30.4367,-88.0117,14.2,6.71,52.41,-9999.0,'1111122,1111122,1111122' 
DISL,ioos:station:DISL:MBLA:1,2014-11-03T05:30:00Z,30.4367,-88.0117,14.2,6.28,44.58,-9999.0,'1111122,1111122,1111122' 
DISL,ioos:station:DISL:MBLA:1,2014-11-03T06:00:00Z,30.4367,-88.0117,14.2,6.29,54.65,-9999.0,'1111122,1111122,1111122' 
DISL,ioos:station:DISL:MBLA:1,2014-11-03T06:30:00Z,30.4367,-88.0117,14.2,6.57,48.28,-9999.0,'1111122,1111122,1111122' 
DISL,ioos:station:DISL:MBLA:1,2014-11-03T07:00:00Z,30.4367,-88.0117,14.2,6.46,55.35,-9999.0,'1111122,1111122,1111122' 
DISL,ioos:station:DISL:MBLA:1,2014-11-03T07:30:00Z,30.4367,-88.0117,14.2,6.27,69.64,-9999.0,'1111122,1111122,1111122' 
DISL,ioos:station:DISL:MBLA:1,2014-11-03T08:00:00Z,30.4367,-88.0117,14.2,7.19,75.87,-9999.0,'1111122,1111122,1111122' 
DISL,ioos:station:DISL:MBLA:1,2014-11-03T08:30:00Z,30.4367,-88.0117,14.2,8.08,72.26,-9999.0,'1111122,1111122,1111122' 
DISL,ioos:station:DISL:MBLA:1,2014-11-03T09:00:00Z,30.4367,-88.0117,14.2,8.75,77.99,-9999.0,'1111122,1111122,1111122' 
DISL,ioos:station:DISL:MBLA:1,2014-11-03T09:30:00Z,30.4367,-88.0117,14.2,8.38,76.38,-9999.0,'1111122,1111122,1111122' 
DISL,ioos:station:DISL:MBLA:1,2014-11-03T10:00:00Z,30.4367,-88.0117,14.2,8.66,74.81,-9999.0,'1111122,1111122,1111122' 
DISL,ioos:station:DISL:MBLA:1,2014-11-03T10:30:00Z,30.4367,-88.0117,14.2,9.56,72.4,-9999.0,'1111122,1111122,1111122' 
DISL,ioos:station:DISL:MBLA:1,2014-11-03T11:00:00Z,30.4367,-88.0117,14.2,8.83,78.18,-9999.0,'1111122,1111122,1111122' 
DISL,ioos:station:DISL:MBLA:1,2014-11-03T11:30:00Z,30.4367,-88.0117,14.2,8.16,78.93,-9999.0,'1111122,1111122,1111122' 
DISL,ioos:station:DISL:MBLA:1,2014-11-03T12:00:00Z,30.4367,-88.0117,14.2,8.68,77.41,-9999.0,'1111122,1111122,1111122' 
DISL,ioos:station:DISL:MBLA:1,2014-11-03T12:30:00Z,30.4367,-88.0117,14.2,8.91,76.43,-9999.0,'1111122,1111122,1111122' 
DISL,ioos:station:DISL:MBLA:1,2014-11-03T13:00:00Z,30.4367,-88.0117,14.2,9.34,81.1,-9999.0,'1111122,1111122,1111122' 
DISL,ioos:station:DISL:MBLA:1,2014-11-03T13:30:00Z,30.4367,-88.0117,14.2,8.23,73.58,-9999.0,'1111122,1111122,1111122' 
DISL,ioos:station:DISL:MBLA:1,2014-11-03T14:00:00Z,30.4367,-88.0117,14.2,7.57,73.7,-9999.0,'1111122,1111122,1111122' 
DISL,ioos:station:DISL:MBLA:1,2014-11-03T14:30:00Z,30.4367,-88.0117,14.2,7.06,76.02,-9999.0,'1111122,1111122,1111122' 
DISL,ioos:station:DISL:MBLA:1,2014-11-03T15:00:00Z,30.4367,-88.0117,14.2,6.52,81.1,-9999.0,'1111122,1111122,1111122' 
DISL,ioos:station:DISL:MBLA:1,2014-11-03T15:30:00Z,30.4367,-88.0117,14.2,5.41,79.68,-9999.0,'1111122,1111122,1111122' 
DISL,ioos:station:DISL:MBLA:1,2014-11-03T16:00:00Z,30.4367,-88.0117,14.2,5.7,80.1,-9999.0,'1111122,1111122,1111122' 
DISL,ioos:station:DISL:MBLA:1,2014-11-03T16:30:00Z,30.4367,-88.0117,14.2,4.42,82.8,-9999.0,'1111122,1111122,1111122' 
DISL,ioos:station:DISL:MBLA:1,2014-11-03T17:00:00Z,30.4367,-88.0117,14.2,4.76,116.2,-9999.0,'1111122,1111122,1111122' 
DISL,ioos:station:DISL:MBLA:1,2014-11-03T17:30:00Z,30.4367,-88.0117,14.2,3.98,121.9,-9999.0,'1111122,1111122,1111122' 
DISL,ioos:station:DISL:MBLA:1,2014-11-03T18:00:00Z,30.4367,-88.0117,14.2,4.8,134.0,-9999.0,'1111122,1111122,1111122' 
DISL,ioos:station:DISL:MBLA:1,2014-11-03T18:30:00Z,30.4367,-88.0117,14.2,4.64,145.0,-9999.0,'1111122,1111122,1111122' 
DISL,ioos:station:DISL:MBLA:1,2014-11-03T19:00:00Z,30.4367,-88.0117,14.2,5.73,143.2,-9999.0,'1111122,1111122,1111122' 
DISL,ioos:station:DISL:MBLA:1,2014-11-03T19:30:00Z,30.4367,-88.0117,14.2,5.38,143.1,-9999.0,'1111122,1111122,1111122' 
DISL,ioos:station:DISL:MBLA:1,2014-11-03T20:00:00Z,30.4367,-88.0117,14.2,5.46,143.5,-9999.0,'1111122,1111122,1111122' 
DISL,ioos:station:DISL:MBLA:1,2014-11-03T20:30:00Z,30.4367,-88.0117,14.2,5.29,146.8,-9999.0,'1111122,1111122,1111122' 
DISL,ioos:station:DISL:MBLA:1,2014-11-03T21:00:00Z,30.4367,-88.0117,14.2,5.94,145.0,-9999.0,'1111122,1111122,1111122' 
DISL,ioos:station:DISL:MBLA:1,2014-11-03T21:30:00Z,30.4367,-88.0117,14.2,5.87,143.1,-9999.0,'1111122,1111122,1111122' 
DISL,ioos:station:DISL:MBLA:1,2014-11-03T22:00:00Z,30.4367,-88.0117,14.2,5.16,135.2,-9999.0,'1111122,1111122,1111122' 
DISL,ioos:station:DISL:MBLA:1,2014-11-03T22:30:00Z,30.4367,-88.0117,14.2,5.24,115.0,-9999.0,'1111122,1111122,1111122' 
DISL,ioos:station:DISL:MBLA:1,2014-11-03T23:00:00Z,30.4367,-88.0117,14.2,5.3,98.9,-9999.0,'1111122,1111122,1111122' 
DISL,ioos:station:DISL:MBLA:1,2014-11-03T23:30:00Z,30.4367,-88.0117,14.2,4.69,98.5,-9999.0,'1111122,1111122,1111122' 
DISL,ioos:station:DISL:MBLA:1,2014-11-04T00:00:00Z,30.4367,-88.0117,14.2,4.83,92.9,-9999.0,'1111122,1111122,1111122' 
DISL,ioos:station:DISL:MBLA:1,2014-11-04T00:30:00Z,30.4367,-88.0117,14.2,5.38,84.2,-9999.0,'1111122,1111122,1111122' 
DISL,ioos:station:DISL:MBLA:1,2014-11-04T01:00:00Z,30.4367,-88.0117,14.2,5.4,80.5,-9999.0,'1111122,1111122,1111122' 
DISL,ioos:station:DISL:MBLA:1,2014-11-04T01:30:00Z,30.4367,-88.0117,14.2,4.94,81.0,-9999.0,'1111122,1111122,1111122' 
DISL,ioos:station:DISL:MBLA:1,2014-11-04T02:00:00Z,30.4367,-88.0117,14.2,4.42,77.27,-9999.0,'1111122,1111122,1111122' 
DISL,ioos:station:DISL:MBLA:1,2014-11-04T02:30:00Z,30.4367,-88.0117,14.2,4.01,82.1,-9999.0,'1111122,1111122,1111122' 
DISL,ioos:station:DISL:MBLA:1,2014-11-04T03:00:00Z,30.4367,-88.0117,14.2,4.24,86.1,-9999.0,'1111122,1111122,1111122' 
DISL,ioos:station:DISL:MBLA:1,2014-11-04T03:30:00Z,30.4367,-88.0117,14.2,3.94,89.5,-9999.0,'1111122,1111122,1111122' 
DISL,ioos:station:DISL:MBLA:1,2014-11-04T04:00:00Z,30.4367,-88.0117,14.2,4.01,83.8,-9999.0,'1111122,1111122,1111122' 
DISL,ioos:station:DISL:MBLA:1,2014-11-04T04:30:00Z,30.4367,-88.0117,14.2,3.97,82.1,-9999.0,'1111122,1111122,1111122' 
DISL,ioos:station:DISL:MBLA:1,2014-11-04T05:00:00Z,30.4367,-88.0117,14.2,3.92,75.24,-9999.0,'1111122,1111122,1111122' 
DISL,ioos:station:DISL:MBLA:1,2014-11-04T05:30:00Z,30.4367,-88.0117,14.2,4.55,74.3,-9999.0,'1111122,1111122,1111122' 
DISL,ioos:station:DISL:MBLA:1,2014-11-04T06:00:00Z,30.4367,-88.0117,14.2,4.54,77.42,-9999.0,'1111122,1111122,1111122' 
DISL,ioos:station:DISL:MBLA:1,2014-11-04T06:30:00Z,30.4367,-88.0117,14.2,4.85,75.76,-9999.0,'1111122,1111122,1111122' 
DISL,ioos:station:DISL:MBLA:1,2014-11-04T07:00:00Z,30.4367,-88.0117,14.2,5.21,83.1,-9999.0,'1111122,1111122,1111122' 
DISL,ioos:station:DISL:MBLA:1,2014-11-04T07:30:00Z,30.4367,-88.0117,14.2,6.09,78.35,-9999.0,'1111122,1111122,1111122' 
DISL,ioos:station:DISL:MBLA:1,2014-11-04T08:00:00Z,30.4367,-88.0117,14.2,6.3,79.88,-9999.0,'1111122,1111122,1111122' 
DISL,ioos:station:DISL:MBLA:1,2014-11-04T08:30:00Z,30.4367,-88.0117,14.2,7.5,84.0,-9999.0,'1111122,1111122,1111122' 
DISL,ioos:station:DISL:MBLA:1,2014-11-04T09:00:00Z,30.4367,-88.0117,14.2,7.43,76.87,-9999.0,'1111122,1111122,1111122' 
DISL,ioos:station:DISL:MBLA:1,2014-11-04T09:30:00Z,30.4367,-88.0117,14.2,6.57,80.8,-9999.0,'1111122,1111122,1111122' 
DISL,ioos:station:DISL:MBLA:1,2014-11-04T10:00:00Z,30.4367,-88.0117,14.2,6.62,80.9,-9999.0,'1111122,1111122,1111122' 
DISL,ioos:station:DISL:MBLA:1,2014-11-04T10:30:00Z,30.4367,-88.0117,14.2,7.16,80.3,-9999.0,'1111122,1111122,1111122' 
DISL,ioos:station:DISL:MBLA:1,2014-11-04T11:00:00Z,30.4367,-88.0117,14.2,6.93,79.07,-9999.0,'1111122,1111122,1111122' 
DISL,ioos:station:DISL:MBLA:1,2014-11-04T11:30:00Z,30.4367,-88.0117,14.2,6.64,76.83,-9999.0,'1111122,1111122,1111122' 
DISL,ioos:station:DISL:MBLA:1,2014-11-04T12:00:00Z,30.4367,-88.0117,14.2,6.71,80.2,-9999.0,'1111122,1111122,1111122' 
DISL,ioos:station:DISL:MBLA:1,2014-11-04T12:30:00Z,30.4367,-88.0117,14.2,6.8,78.06,-9999.0,'1111122,1111122,1111122' 
DISL,ioos:station:DISL:MBLA:1,2014-11-04T13:00:00Z,30.4367,-88.0117,14.2,7.22,76.17,-9999.0,'1111122,1111122,1111122' 
DISL,ioos:station:DISL:MBLA:1,2014-11-04T13:30:00Z,30.4367,-88.0117,14.2,7.35,78.15,-9999.0,'1111122,1111122,1111122' 
DISL,ioos:station:DISL:MBLA:1,2014-11-04T14:00:00Z,30.4367,-88.0117,14.2,6.61,79.54,-9999.0,'1111122,1111122,1111122' 
DISL,ioos:station:DISL:MBLA:1,2014-11-04T14:30:00Z,30.4367,-88.0117,14.2,5.91,78.75,-9999.0,'1111122,1111122,1111122' 
DISL,ioos:station:DISL:MBLA:1,2014-11-04T15:00:00Z,30.4367,-88.0117,14.2,5.0,79.0,-9999.0,'1111122,1111122,1111122' 
DISL,ioos:station:DISL:MBLA:1,2014-11-04T15:30:00Z,30.4367,-88.0117,14.2,3.03,21.17,-9999.0,'1111122,1111122,1111122' 
DISL,ioos:station:DISL:MBLA:1,2014-11-04T16:00:00Z,30.4367,-88.0117,14.2,3.01,357.6,-9999.0,'1111122,1111122,1111122' 
DISL,ioos:station:DISL:MBLA:1,2014-11-04T16:30:00Z,30.4367,-88.0117,14.2,3.72,1.867,-9999.0,'1111122,1111122,1111122' 
DISL,ioos:station:DISL:MBLA:1,2014-11-04T17:00:00Z,30.4367,-88.0117,14.2,2.96,347.9,-9999.0,'1111122,1111122,1111122' 
DISL,ioos:station:DISL:MBLA:1,2014-11-04T17:30:00Z,30.4367,-88.0117,14.2,3.04,357.7,-9999.0,'1111122,1111122,1111122' 
DISL,ioos:station:DISL:MBLA:1,2014-11-04T18:00:00Z,30.4367,-88.0117,14.2,2.38,2.32,-9999.0,'1111122,1111122,1111122' 
DISL,ioos:station:DISL:MBLA:1,2014-11-04T18:30:00Z,30.4367,-88.0117,14.2,1.63,353.9,-9999.0,'1111122,1111122,1111122' 
DISL,ioos:station:DISL:MBLA:1,2014-11-04T19:00:00Z,30.4367,-88.0117,14.2,1.58,8.88,-9999.0,'1111122,1111122,1111122' 
DISL,ioos:station:DISL:MBLA:1,2014-11-04T19:30:00Z,30.4367,-88.0117,14.2,1.51,74.1,-9999.0,'1111122,1111122,1111122' 
DISL,ioos:station:DISL:MBLA:1,2014-11-04T20:00:00Z,30.4367,-88.0117,14.2,3.08,115.6,-9999.0,'1111122,1111122,1111122' 
DISL,ioos:station:DISL:MBLA:1,2014-11-04T20:30:00Z,30.4367,-88.0117,14.2,3.6,128.9,-9999.0,'1111122,1111122,1111122' 
DISL,ioos:station:DISL:MBLA:1,2014-11-04T21:00:00Z,30.4367,-88.0117,14.2,3.37,134.5,-9999.0,'1111122,1111122,1111122' 
DISL,ioos:station:DISL:MBLA:1,2014-11-04T21:30:00Z,30.4367,-88.0117,14.2,4.16,130.1,-9999.0,'1111122,1111122,1111122' 
DISL,ioos:station:DISL:MBLA:1,2014-11-04T22:00:00Z,30.4367,-88.0117,14.2,5.39,136.1,-9999.0,'1111122,1111122,1111122' 
DISL,ioos:station:DISL:MBLA:1,2014-11-04T22:30:00Z,30.4367,-88.0117,14.2,3.56,125.4,-9999.0,'1111122,1111122,1111122' 
DISL,ioos:station:DISL:MBLA:1,2014-11-04T23:00:00Z,30.4367,-88.0117,14.2,4.44,125.8,-9999.0,'1111122,1111122,1111122' 
DISL,ioos:station:DISL:MBLA:1,2014-11-04T23:30:00Z,30.4367,-88.0117,14.2,3.92,109.4,-9999.0,'1111122,1111122,1111122' 
DISL,ioos:station:DISL:MBLA:1,2014-11-05T00:00:00Z,30.4367,-88.0117,14.2,5.44,107.3,-9999.0,'1111122,1111122,1111122' 
DISL,ioos:station:DISL:MBLA:1,2014-11-05T00:30:00Z,30.4367,-88.0117,14.2,5.28,100.9,-9999.0,'1111122,1111122,1111122' 
DISL,ioos:station:DISL:MBLA:1,2014-11-05T01:00:00Z,30.4367,-88.0117,14.2,5.54,104.1,-9999.0,'1111122,1111122,1111122' 
DISL,ioos:station:DISL:MBLA:1,2014-11-05T01:30:00Z,30.4367,-88.0117,14.2,5.18,99.8,-9999.0,'1111122,1111122,1111122' 
DISL,ioos:station:DISL:MBLA:1,2014-11-05T02:00:00Z,30.4367,-88.0117,14.2,5.46,102.0,-9999.0,'1111122,1111122,1111122' 
DISL,ioos:station:DISL:MBLA:1,2014-11-05T02:30:00Z,30.4367,-88.0117,14.2,5.15,101.6,-9999.0,'1111122,1111122,1111122' 
DISL,ioos:station:DISL:MBLA:1,2014-11-05T03:00:00Z,30.4367,-88.0117,14.2,4.47,101.2,-9999.0,'1111122,1111122,1111122' 
DISL,ioos:station:DISL:MBLA:1,2014-11-05T03:30:00Z,30.4367,-88.0117,14.2,4.65,101.4,-9999.0,'1111122,1111122,1111122' 